FW5236 Weather Reports


time (UTC)temp
F
wind
direction
speed
knots
gust
knots
rain 1hr
in
rain 24hr
in
rain mn
in
humidity
%
barometer
mb
20260510050026 58 243 1.7 2.6 0.00 0.00 0.00 48 1018.8
20260510043029 60 216 0.9 3.5 0.00 0.00 0.00 44 1018.8
20260510041531 61 202 0.0 1.7 0.00 0.00 0.00 44 1018.6
20260510040030 61 190 0.0 3.5 0.00 0.00 0.00 45 1018.5
20260510033030 62 135 0.0 0.0 0.00 0.00 0.00 43 1018.4
20260510031603 64 135 0.0 0.0 0.00 0.00 0.00 40 1018.3
20260510030107 66 135 0.0 0.0 0.00 0.00 0.00 39 1018.2
20260510024533 68 135 0.0 0.0 0.00 0.00 0.00 36 1018.1
20260510023028 73 122 0.0 0.0 0.00 0.00 0.00 27 1018.0
20260510021529 79 112 0.0 1.7 0.00 0.00 0.00 25 1018.1
20260510020028 80 112 0.0 0.9 0.00 0.00 0.00 24 1018.1
20260510014532 82 112 0.0 1.7 0.00 0.00 0.00 22 1018.3
20260510013029 82 112 0.0 1.7 0.00 0.00 0.00 25 1018.4
20260510011532 82 112 0.0 1.7 0.00 0.00 0.00 25 1018.5
20260510010030 82 126 0.0 1.7 0.00 0.00 0.00 23 1018.5
20260510004530 83 153 0.0 1.7 0.00 0.00 0.00 23 1018.5
20260510003106 83 127 0.0 2.6 0.00 0.00 0.00 24 1018.6
20260510000106 86 136 0.0 2.6 0.00 0.00 0.00 23 1018.8
20260509234530 85 99 0.9 3.5 0.00 0.00 0.00 23 1019.0
20260509231531 84 105 0.0 2.6 0.00 0.00 0.00 24 1019.5
20260509230030 84 116 0.0 3.5 0.00 0.00 0.00 24 1019.7
20260509224531 83 96 0.0 3.5 0.00 0.00 0.00 25 1020.0
20260509220032 80 124 0.9 4.3 0.00 0.00 0.00 27 1020.6
20260509214532 81 128 0.9 3.5 0.00 0.00 0.00 27 1020.8
20260509211531 80 125 0.0 3.5 0.00 0.00 0.00 29 1021.3
20260509204528 79 87 0.0 2.6 0.00 0.00 0.00 33 1021.5
20260509203031 78 134 0.9 3.5 0.00 0.00 0.00 33 1021.7
20260509201530 78 95 0.9 5.2 0.00 0.00 0.00 34 1022.0
20260509200103 77 91 0.0 2.6 0.00 0.00 0.00 34 1022.2
20260509193031 76 153 0.0 4.3 0.00 0.00 0.00 36 1022.5
20260509191530 74 148 0.0 3.5 0.00 0.00 0.00 37 1022.9
20260509190107 74 129 0.0 2.6 0.00 0.00 0.00 38 1023.0
20260509184531 74 72 0.9 4.3 0.00 0.00 0.00 39 1023.1
20260509183031 73 79 0.0 2.6 0.00 0.00 0.00 41 1023.3
20260509181606 72 86 0.0 3.5 0.00 0.00 0.00 41 1023.3
20260509174616 70 97 0.0 2.6 0.00 0.00 0.00 43 1023.5
20260509173031 71 64 0.0 1.7 0.00 0.00 0.00 43 1023.6
20260509170029 69 90 0.0 2.6 0.00 0.00 0.00 46 1023.9
20260509164533 67 111 0.0 1.7 0.00 0.00 0.00 47 1024.0
20260509161530 65 112 0.0 1.7 0.00 0.00 0.00 51 1024.4
20260509160036 63 141 0.0 0.0 0.00 0.00 0.00 54 1024.3
20260509154607 60 173 0.0 0.9 0.00 0.00 0.00 60 1024.3
20260509151530 54 225 0.0 0.9 0.00 0.00 0.00 69 1024.4
20260509150152 51 225 0.0 1.7 0.00 0.00 0.00 73 1024.5
20260509144531 49 238 1.7 3.5 0.00 0.00 0.00 76 1024.4
20260509141532 45 240 1.7 4.3 0.00 0.00 0.00 81 1024.4
20260509140030 44 232 2.6 5.2 0.00 0.00 0.00 83 1024.3
20260509134531 43 236 1.7 3.5 0.00 0.00 0.00 85 1024.3
20260509133145 42 234 2.6 4.3 0.00 0.00 0.00 86 1024.1
20260509131603 42 232 1.7 4.3 0.00 0.00 0.00 86 1023.8
20260509130033 41 249 0.9 3.5 0.00 0.00 0.00 86 1023.6
20260509124603 42 225 0.0 0.9 0.00 0.00 0.00 85 1023.6
20260509123031 42 230 0.9 3.5 0.00 0.00 0.00 84 1023.7
20260509121531 42 240 1.7 3.5 0.00 0.00 0.00 83 1023.7
20260509120030 44 238 1.7 3.5 0.00 0.00 0.00 82 1023.7
20260509114646 43 250 0.9 2.6 0.00 0.00 0.00 82 1023.7
20260509113108 44 247 0.9 3.5 0.00 0.00 0.00 81 1023.7
20260509111532 44 236 1.7 5.2 0.00 0.00 0.00 80 1023.8
20260509104607 46 253 0.9 3.5 0.00 0.00 0.00 78 1023.6
20260509103030 46 258 0.9 3.5 0.00 0.00 0.00 77 1023.6
20260509101645 47 256 0.9 2.6 0.00 0.00 0.00 75 1023.8
20260509100029 48 239 0.9 2.6 0.00 0.00 0.00 73 1023.8
20260509094529 51 272 0.9 3.5 0.00 0.00 0.00 69 1023.8
20260509093032 52 344 0.9 4.3 0.00 0.00 0.00 69 1023.6
20260509090030 51 313 1.7 4.3 0.00 0.00 0.00 68 1024.0
20260509084530 53 278 0.9 3.5 0.00 0.00 0.00 67 1024.3
20260509083144 53 299 0.9 2.6 0.00 0.00 0.00 67 1024.4
20260509081531 53 166 0.0 2.6 0.00 0.00 0.00 67 1024.4
20260509080107 54 347 0.0 2.6 0.00 0.00 0.00 64 1024.3
20260509074531 55 349 2.6 7.8 0.00 0.00 0.00 63 1024.1
20260509073031 56 355 2.6 7.0 0.00 0.00 0.00 62 1024.0
20260509071532 56 1 1.7 7.0 0.00 0.00 0.00 61 1024.1
20260509070033 57 9 1.7 7.0 0.00 0.00 0.00 61 1024.1
20260509064530 56 22 1.7 7.0 0.00 0.00 0.00 61 1024.1
20260509063029 56 12 0.9 6.1 0.00 0.00 0.00 62 1024.2
20260509061539 56 342 0.9 4.3 0.00 0.00 0.00 61 1024.1
20260509060032 56 338 0.9 4.3 0.00 0.00 0.00 60 1024.2
20260509054606 57 355 0.9 8.7 0.00 0.00 0.00 60 1024.0
20260509053030 57 5 1.7 8.7 0.00 0.00 0.00 60 1023.8
20260509051530 57 359 1.7 6.1 0.00 0.00 0.00 59 1023.8